81.4710; 165.9680;1; 323.540; 256.484;1968.05.30 12:00:00;  -5.0;1007.2;   2.0; 160.0;    .000;    .000;   0.000; 90;
81.4993; 165.9061;2; 323.218; 256.506;1968.05.30 18:00:00;  -7.7;1007.0;   2.0; 120.0;   3.307;    .250;   0.551;342;
81.5276; 165.8438;2; 322.897; 256.528;1968.05.31 00:00:00;  -6.1;1006.5;   2.0; 110.0;   6.612;    .500;   0.551;342;
81.5558; 165.7811;2; 322.575; 256.549;1968.05.31 06:00:00;  -6.7;1005.5;   5.0;  90.0;   9.919;    .750;   0.551;342;
81.5841; 165.7179;2; 322.253; 256.571;1968.05.31 12:00:00;  -6.8;1004.5;   5.0;  90.0;  13.225;   1.000;   0.551;342;
81.6123; 165.6543;2; 321.932; 256.593;1968.05.31 18:00:00;  -6.4;1001.5;   8.0;  90.0;  16.531;   1.250;   0.551;342;
81.6406; 165.5903;2; 321.610; 256.615;1968.06.01 00:00:00;  -2.5; 998.5;  11.0; 110.0;  19.837;   1.500;   0.551;342;
81.6688; 165.5259;2; 321.289; 256.637;1968.06.01 06:00:00;  -2.6; 995.5;  12.0; 110.0;  23.144;   1.750;   0.551;342;
81.6970; 165.4610;2; 320.967; 256.659;1968.06.01 12:00:00;  -3.8; 994.3;  10.0; 100.0;  26.450;   2.000;   0.551;342;
81.7223; 165.3362;2; 320.653; 256.779;1968.06.01 18:00:00;  -5.4; 991.7;  10.0;  90.0;  29.899;   2.250;   0.575;325;
81.7475; 165.2107;2; 320.339; 256.898;1968.06.02 00:00:00;  -4.9; 987.5;   8.0;  90.0;  33.347;   2.500;   0.575;324;
81.7727; 165.0843;2; 320.024; 257.018;1968.06.02 06:00:00;  -5.0; 986.6;   4.0;  90.0;  36.797;   2.750;   0.575;324;
81.7978; 164.9572;2; 319.710; 257.138;1968.06.02 12:00:00;  -5.0; 985.4;   3.0; 360.0;  40.245;   3.000;   0.575;324;
81.8229; 164.8294;2; 319.396; 257.257;1968.06.02 18:00:00;  -5.4; 986.9;   6.0; 210.0;  43.695;   3.250;   0.575;324;
81.8480; 164.7007;2; 319.082; 257.377;1968.06.03 00:00:00;  -5.8; 991.0;   3.0; 210.0;  47.144;   3.500;   0.575;324;
81.8730; 164.5712;2; 318.768; 257.497;1968.06.03 06:00:00;  -4.4; 993.9;   6.0; 230.0;  50.593;   3.750;   0.575;324;
81.8980; 164.4410;2; 318.453; 257.617;1968.06.03 12:00:00;  -5.0; 997.6;   7.0; 220.0;  54.042;   4.000;   0.575;324;
81.9053; 164.4892;2; 318.397; 257.525;1968.06.03 18:00:00;  -5.8;1001.4;   8.0; 220.0;  55.148;   4.250;   0.184; 43;
81.9125; 164.5375;2; 318.341; 257.433;1968.06.04 00:00:00;  -5.7;1005.2;   7.0; 200.0;  56.254;   4.500;   0.184; 43;
81.9198; 164.5858;2; 318.285; 257.341;1968.06.04 06:00:00;  -5.6;1007.2;   5.0; 180.0;  57.360;   4.750;   0.184; 43;
81.9270; 164.6343;2; 318.229; 257.249;1968.06.04 12:00:00;  -4.5;1007.2;   2.0; 140.0;  58.466;   5.000;   0.184; 43;
81.9343; 164.6828;2; 318.172; 257.157;1968.06.04 18:00:00;  -5.3;1004.8;   1.0;  90.0;  59.572;   5.250;   0.184; 43;
81.9415; 164.7315;2; 318.116; 257.065;1968.06.05 00:00:00;  -4.3;1002.3;   2.0;  80.0;  60.678;   5.500;   0.184; 43;
81.9488; 164.7802;2; 318.060; 256.973;1968.06.05 06:00:00;  -4.5; 998.0;   5.0; 360.0;  61.785;   5.750;   0.184; 43;
81.9560; 164.8290;2; 318.004; 256.881;1968.06.05 12:00:00;  -5.8; 992.9;  10.0; 320.0;  62.891;   6.000;   0.184; 43;
81.9479; 164.8669;2; 318.104; 256.848;1968.06.05 18:00:00;  -5.0; 989.9;  11.0; 310.0;  63.969;   6.250;   0.180;147;
81.9398; 164.9047;2; 318.204; 256.816;1968.06.06 00:00:00;  -5.2; 992.3;  11.0; 320.0;  65.046;   6.500;   0.180;147;
81.9316; 164.9424;2; 318.303; 256.783;1968.06.06 06:00:00;  -5.2; 997.3;   6.0; 310.0;  66.125;   6.750;   0.180;147;
81.9235; 164.9801;2; 318.403; 256.751;1968.06.06 12:00:00;  -4.9;1001.8;   8.0; 290.0;  67.202;   7.000;   0.180;147;
81.9154; 165.0177;2; 318.503; 256.718;1968.06.06 18:00:00;  -4.1;1005.0;   9.0; 270.0;  68.281;   7.250;   0.180;147;
81.9073; 165.0552;2; 318.603; 256.685;1968.06.07 00:00:00;  -2.8;1008.2;   8.0; 280.0;  69.358;   7.500;   0.180;147;
81.8991; 165.0926;2; 318.703; 256.653;1968.06.07 06:00:00;  -4.4;1011.5;   8.0; 260.0;  70.436;   7.750;   0.180;147;
81.8910; 165.1300;2; 318.803; 256.620;1968.06.07 12:00:00;  -7.1;1013.2;   3.0; 200.0;  71.514;   8.000;   0.180;147;
81.8876; 165.2139;2; 318.872; 256.506;1968.06.07 18:00:00;  -6.1;1013.3;   3.0; 150.0;  72.884;   8.250;   0.228;106;
81.8841; 165.2977;2; 318.941; 256.392;1968.06.08 00:00:00;  -3.4;1008.1;   5.0; 130.0;  74.255;   8.500;   0.228;106;
81.8806; 165.3814;2; 319.010; 256.277;1968.06.08 06:00:00;  -1.2;1005.1;   2.0; 120.0;  75.625;   8.750;   0.228;106;
81.8771; 165.4651;2; 319.078; 256.163;1968.06.08 12:00:00;  -0.7;1003.8;   2.0; 140.0;  76.995;   9.000;   0.228;106;
81.8736; 165.5487;2; 319.147; 256.048;1968.06.08 18:00:00;  -0.7;1002.4;   1.0; 130.0;  78.366;   9.250;   0.228;107;
81.8701; 165.6322;2; 319.216; 255.934;1968.06.09 00:00:00;  -0.5;1004.1;   4.0; 250.0;  79.736;   9.500;   0.228;107;
81.8666; 165.7156;2; 319.285; 255.819;1968.06.09 06:00:00;  -0.8;1008.6;  10.0; 270.0;  81.106;   9.750;   0.228;107;
81.8630; 165.7990;2; 319.354; 255.705;1968.06.09 12:00:00;  -4.0;1012.5;   5.0; 220.0;  82.476;  10.000;   0.228;107;
81.8772; 165.8726;2; 319.233; 255.558;1968.06.09 18:00:00;  -4.8;1012.7;   5.0; 190.0;  84.431;  10.250;   0.326; 36;
81.8913; 165.9464;2; 319.111; 255.411;1968.06.10 00:00:00;  -0.2;1013.0;   2.0; 200.0;  86.386;  10.500;   0.326; 36;
81.9055; 166.0206;2; 318.990; 255.264;1968.06.10 06:00:00;  -0.8;1014.5;   3.0; 210.0;  88.342;  10.750;   0.326; 36;
81.9196; 166.0949;2; 318.869; 255.117;1968.06.10 12:00:00;  -1.2;1014.8;   4.0; 160.0;  90.297;  11.000;   0.326; 37;
81.9337; 166.1695;2; 318.747; 254.970;1968.06.10 18:00:00;  -2.0;1012.2;   8.0; 160.0;  92.253;  11.250;   0.326; 37;
81.9478; 166.2444;2; 318.626; 254.823;1968.06.11 00:00:00;   0.9;1010.1;   9.0; 170.0;  94.207;  11.500;   0.326; 37;
81.9619; 166.3196;2; 318.505; 254.676;1968.06.11 06:00:00;   1.9;1011.5;  10.0; 180.0;  96.162;  11.750;   0.326; 37;
81.9760; 166.3950;2; 318.383; 254.529;1968.06.11 12:00:00;   0.7;1012.2;   9.0; 180.0;  98.118;  12.000;   0.326; 37;
81.9932; 166.4722;2; 318.230; 254.372;1968.06.11 18:00:00;   0.0;1012.2;   9.0; 180.0; 100.372;  12.250;   0.376; 32;
82.0103; 166.5497;2; 318.076; 254.215;1968.06.12 00:00:00;   0.4;1013.5;   8.0; 180.0; 102.626;  12.500;   0.376; 32;
82.0275; 166.6276;2; 317.922; 254.058;1968.06.12 06:00:00;   0.8;1013.3;   9.0; 180.0; 104.880;  12.750;   0.376; 32;
82.0446; 166.7058;2; 317.769; 253.901;1968.06.12 12:00:00;  -1.1;1013.4;   8.0; 180.0; 107.134;  13.000;   0.376; 32;
82.0617; 166.7843;2; 317.615; 253.744;1968.06.12 18:00:00;  -1.5;1012.8;   6.0; 230.0; 109.388;  13.250;   0.376; 32;
82.0788; 166.8632;2; 317.462; 253.587;1968.06.13 00:00:00;   0.1;1013.7;   3.0; 270.0; 111.642;  13.500;   0.376; 32;
82.0959; 166.9424;2; 317.308; 253.430;1968.06.13 06:00:00;  -0.4;1015.0;   3.0; 320.0; 113.897;  13.750;   0.376; 33;
82.1130; 167.0220;2; 317.155; 253.273;1968.06.13 12:00:00;  -1.7;1017.7;   3.0; 340.0; 116.150;  14.000;   0.376; 33;
82.1346; 167.0538;2; 316.937; 253.174;1968.06.13 18:00:00;  -3.5;1019.8;   3.0;  20.0; 118.603;  14.250;   0.409; 11;
82.1563; 167.0857;2; 316.719; 253.076;1968.06.14 00:00:00;  -2.2;1021.3;   2.0; 110.0; 121.057;  14.500;   0.409; 11;
82.1779; 167.1178;2; 316.501; 252.977;1968.06.14 06:00:00;  -1.6;1021.5;   2.0; 120.0; 123.511;  14.750;   0.409; 11;
82.1995; 167.1501;2; 316.283; 252.879;1968.06.14 12:00:00;  -2.1;1021.3;   3.0; 130.0; 125.965;  15.000;   0.409; 11;
82.2211; 167.1825;2; 316.065; 252.780;1968.06.14 18:00:00;  -2.4;1020.2;   6.0; 180.0; 128.418;  15.250;   0.409; 12;
82.2428; 167.2152;2; 315.848; 252.682;1968.06.15 00:00:00;  -1.9;1018.9;   7.0; 160.0; 130.873;  15.500;   0.409; 12;
82.2644; 167.2480;2; 315.630; 252.583;1968.06.15 06:00:00;  -1.7;1017.3;   7.0; 150.0; 133.326;  15.750;   0.409; 12;
82.2860; 167.2810;2; 315.412; 252.485;1968.06.15 12:00:00;  -1.4;1016.1;   7.0; 160.0; 135.780;  16.000;   0.409; 12;
82.2994; 167.3009;2; 315.277; 252.425;1968.06.15 18:00:00;   0.6;1014.9;   8.0; 160.0; 137.297;  16.250;   0.253; 11;
82.3128; 167.3208;2; 315.142; 252.365;1968.06.16 00:00:00;   1.3;1013.8;   8.0; 160.0; 138.814;  16.500;   0.253; 11;
82.3261; 167.3409;2; 315.007; 252.304;1968.06.16 06:00:00;   1.4;1011.4;   9.0; 180.0; 140.331;  16.750;   0.253; 11;
82.3395; 167.3609;2; 314.872; 252.244;1968.06.16 12:00:00;   0.3;1011.8;   5.0; 200.0; 141.848;  17.000;   0.253; 11;
82.3529; 167.3811;2; 314.737; 252.184;1968.06.16 18:00:00;   0.3;1012.3;   2.0; 270.0; 143.364;  17.250;   0.253; 11;
82.3663; 167.4013;2; 314.602; 252.124;1968.06.17 00:00:00;   0.3;1013.0;   1.0; 290.0; 144.881;  17.500;   0.253; 11;
82.3796; 167.4216;2; 314.467; 252.064;1968.06.17 06:00:00;   0.3;1012.8;   2.0; 290.0; 146.398;  17.750;   0.253; 11;
82.3930; 167.4420;2; 314.332; 252.004;1968.06.17 12:00:00;   0.0;1013.8;   2.0; 270.0; 147.915;  18.000;   0.253; 11;
82.3932; 167.4560;2; 314.333; 251.984;1968.06.17 18:00:00;  -1.8;1014.3;   1.0; 270.0; 148.122;  18.250;   0.035; 82;
82.3935; 167.4700;2; 314.335; 251.964;1968.06.18 00:00:00;  -1.4;1014.0;   4.0; 190.0; 148.330;  18.500;   0.035; 82;
82.3938; 167.4840;2; 314.337; 251.944;1968.06.18 06:00:00;  -1.9;1012.6;   5.0; 180.0; 148.538;  18.750;   0.035; 82;
82.3940; 167.4980;2; 314.339; 251.923;1968.06.18 12:00:00;  -2.9;1011.2;   6.0; 180.0; 148.746;  19.000;   0.035; 82;
82.3942; 167.5120;2; 314.340; 251.903;1968.06.18 18:00:00;  -2.7;1010.4;   8.0; 180.0; 148.954;  19.250;   0.035; 82;
82.3945; 167.5260;2; 314.342; 251.883;1968.06.19 00:00:00;  -0.9;1011.6;   6.0; 180.0; 149.162;  19.500;   0.035; 82;
82.3948; 167.5400;2; 314.344; 251.863;1968.06.19 06:00:00;  -1.8;1013.8;   4.0; 180.0; 149.370;  19.750;   0.035; 82;
82.3950; 167.5540;2; 314.345; 251.843;1968.06.19 12:00:00;  -2.8;1016.4;   3.0; 210.0; 149.578;  20.000;   0.035; 82;
82.4040; 167.5606;2; 314.252; 251.813;1968.06.19 18:00:00;  -2.9;1018.1;   2.0; 240.0; 150.584;  20.250;   0.168;  6;
82.4130; 167.5672;2; 314.159; 251.782;1968.06.20 00:00:00;   0.0;1018.8;   3.0; 240.0; 151.589;  20.500;   0.168;  6;
82.4220; 167.5738;2; 314.066; 251.752;1968.06.20 06:00:00;  -0.1;1018.8;   4.0; 270.0; 152.594;  20.750;   0.167;  6;
82.4310; 167.5804;2; 313.973; 251.722;1968.06.20 12:00:00;  -0.1;1019.0;   5.0; 320.0; 153.600;  21.000;   0.168;  6;
82.4400; 167.5870;2; 313.880; 251.692;1968.06.20 18:00:00;  -1.3;1017.9;   5.0; 320.0; 154.606;  21.250;   0.168;  6;
82.4490; 167.5937;2; 313.786; 251.662;1968.06.21 00:00:00;  -0.9;1017.3;   4.0; 360.0; 155.611;  21.500;   0.167;  6;
82.4580; 167.6003;2; 313.693; 251.631;1968.06.21 06:00:00;   0.1;1017.0;   3.0;  10.0; 156.616;  21.750;   0.168;  6;
82.4670; 167.6070;2; 313.600; 251.601;1968.06.21 12:00:00;  -0.1;1017.4;   2.0;  40.0; 157.622;  22.000;   0.168;  6;
82.4699; 167.6057;2; 313.569; 251.596;1968.06.21 18:00:00;   0.0;1017.1;   0.0;   0.0; 157.943;  22.250;   0.053;357;
82.4727; 167.6045;2; 313.539; 251.591;1968.06.22 00:00:00;   0.3;1017.2;   2.0; 340.0; 158.262;  22.500;   0.053;357;
82.4756; 167.6033;2; 313.508; 251.586;1968.06.22 06:00:00;  -0.5;1017.7;   3.0;  20.0; 158.583;  22.750;   0.054;357;
82.4785; 167.6020;2; 313.477; 251.581;1968.06.22 12:00:00;  -1.1;1018.8;   3.0;  10.0; 158.903;  23.000;   0.053;357;
82.4814; 167.6008;2; 313.446; 251.576;1968.06.22 18:00:00;  -3.0;1020.1;   3.0; 350.0; 159.223;  23.250;   0.053;357;
82.4843; 167.5995;2; 313.415; 251.571;1968.06.23 00:00:00;  -2.9;1020.9;   2.0; 360.0; 159.543;  23.500;   0.053;357;
82.4871; 167.5983;2; 313.384; 251.566;1968.06.23 06:00:00;  -2.5;1021.9;   2.0; 340.0; 159.864;  23.750;   0.053;357;
82.4900; 167.5970;2; 313.354; 251.562;1968.06.23 12:00:00;  -2.2;1022.0;   2.0; 250.0; 160.183;  24.000;   0.053;357;
82.4845; 167.6128;2; 313.417; 251.552;1968.06.23 18:00:00;  -3.3;1021.0;   4.0; 270.0; 160.837;  24.250;   0.109;159;
82.4790; 167.6286;2; 313.480; 251.543;1968.06.24 00:00:00;  -2.4;1021.2;   3.0; 310.0; 161.490;  24.500;   0.109;159;
82.4735; 167.6444;2; 313.543; 251.534;1968.06.24 06:00:00;  -1.5;1021.5;   2.0; 360.0; 162.143;  24.750;   0.109;159;
82.4680; 167.6602;2; 313.606; 251.525;1968.06.24 12:00:00;  -2.2;1022.7;   1.0;  20.0; 162.796;  25.000;   0.109;159;
82.4625; 167.6759;2; 313.669; 251.516;1968.06.24 18:00:00;  -3.2;1023.0;   1.0; 110.0; 163.449;  25.250;   0.109;159;
82.4570; 167.6916;2; 313.732; 251.507;1968.06.25 00:00:00;  -2.7;1023.3;   1.0; 180.0; 164.103;  25.500;   0.109;159;
82.4515; 167.7073;2; 313.795; 251.498;1968.06.25 06:00:00;  -3.0;1023.8;   1.0; 180.0; 164.756;  25.750;   0.109;159;
82.4460; 167.7230;2; 313.857; 251.489;1968.06.25 12:00:00;  -3.7;1024.2;   2.0; 160.0; 165.409;  26.000;   0.109;159;
82.4382; 167.7453;2; 313.946; 251.475;1968.06.25 18:00:00;  -3.5;1023.0;   4.0; 180.0; 166.331;  26.250;   0.154;159;
82.4305; 167.7675;2; 314.035; 251.462;1968.06.26 00:00:00;  -1.5;1021.1;   6.0; 190.0; 167.250;  26.500;   0.153;159;
82.4228; 167.7897;2; 314.124; 251.449;1968.06.26 06:00:00;  -0.3;1017.0;   7.0; 200.0; 168.171;  26.750;   0.154;159;
82.4150; 167.8119;2; 314.212; 251.436;1968.06.26 12:00:00;   0.3;1013.5;   6.0; 240.0; 169.093;  27.000;   0.154;159;
82.4073; 167.8340;2; 314.301; 251.423;1968.06.26 18:00:00;   0.3;1013.6;   5.0; 330.0; 170.014;  27.250;   0.153;159;
82.3995; 167.8560;2; 314.390; 251.409;1968.06.27 00:00:00;   0.5;1015.0;   6.0; 330.0; 170.934;  27.500;   0.153;159;
82.3917; 167.8780;2; 314.479; 251.396;1968.06.27 06:00:00;   0.0;1014.7;   4.0; 300.0; 171.856;  27.750;   0.154;159;
82.3840; 167.9000;2; 314.567; 251.383;1968.06.27 12:00:00;  -1.0;1012.7;   1.0;  10.0; 172.776;  28.000;   0.153;159;
82.3894; 167.9169;2; 314.515; 251.347;1968.06.27 18:00:00;  -0.9;1012.0;   2.0;  10.0; 173.424;  28.250;   0.108; 23;
82.3948; 167.9339;2; 314.464; 251.311;1968.06.28 00:00:00;  -0.1;1014.2;   3.0; 360.0; 174.071;  28.500;   0.108; 23;
82.4001; 167.9508;2; 314.412; 251.275;1968.06.28 06:00:00;   0.2;1016.0;   2.0;  10.0; 174.719;  28.750;   0.108; 23;
82.4055; 167.9678;2; 314.360; 251.239;1968.06.28 12:00:00;   0.1;1018.4;   1.0;  80.0; 175.367;  29.000;   0.108; 23;
82.4109; 167.9848;2; 314.308; 251.203;1968.06.28 18:00:00;  -0.5;1020.7;   3.0; 120.0; 176.015;  29.250;   0.108; 23;
82.4163; 168.0019;2; 314.256; 251.167;1968.06.29 00:00:00;   0.1;1022.3;   1.0; 100.0; 176.662;  29.500;   0.108; 23;
82.4216; 168.0189;2; 314.204; 251.131;1968.06.29 06:00:00;  -0.8;1023.7;   2.0; 140.0; 177.311;  29.750;   0.108; 23;
82.4270; 168.0360;2; 314.152; 251.096;1968.06.29 12:00:00;  -2.6;1025.0;   2.0; 120.0; 177.958;  30.000;   0.108; 23;
82.4444; 168.0734;2; 313.979; 251.004;1968.06.29 18:00:00;  -2.9;1025.7;   1.0; 110.0; 179.968;  30.250;   0.335; 16;
82.4618; 168.1109;2; 313.806; 250.913;1968.06.30 00:00:00;  -0.8;1026.3;   0.0;   0.0; 181.976;  30.500;   0.335; 16;
82.4791; 168.1487;2; 313.633; 250.822;1968.06.30 06:00:00;  -1.5;1026.3;   1.0; 130.0; 183.986;  30.750;   0.335; 16;
82.4965; 168.1866;2; 313.460; 250.731;1968.06.30 12:00:00;  -2.3;1026.6;   3.0; 150.0; 185.995;  31.000;   0.335; 16;
82.5139; 168.2247;2; 313.286; 250.640;1968.06.30 18:00:00;  -2.3;1025.9;   3.0; 160.0; 188.004;  31.250;   0.335; 16;
82.5313; 168.2629;2; 313.113; 250.549;1968.07.01 00:00:00;  -0.1;1025.5;   4.0; 180.0; 190.014;  31.500;   0.335; 16;
82.5486; 168.3014;2; 312.940; 250.458;1968.07.01 06:00:00;  -0.2;1024.4;   5.0; 180.0; 192.023;  31.750;   0.335; 16;
82.5660; 168.3400;2; 312.767; 250.367;1968.07.01 12:00:00;  -0.1;1023.3;   6.0; 180.0; 194.032;  32.000;   0.335; 16;
82.5785; 168.3999;2; 312.651; 250.257;1968.07.01 18:00:00;   0.3;1021.4;   7.0; 190.0; 195.670;  32.250;   0.273; 32;
82.5910; 168.4600;2; 312.535; 250.148;1968.07.02 00:00:00;   0.5;1021.0;   7.0; 230.0; 197.308;  32.500;   0.273; 32;
82.6036; 168.5203;2; 312.419; 250.038;1968.07.02 06:00:00;   0.7;1021.5;   7.0; 230.0; 198.945;  32.750;   0.273; 32;
82.6161; 168.5809;2; 312.303; 249.928;1968.07.02 12:00:00;   0.7;1022.1;   5.0; 200.0; 200.584;  33.000;   0.273; 32;
82.6286; 168.6416;2; 312.187; 249.819;1968.07.02 18:00:00;   0.4;1020.6;   5.0; 190.0; 202.221;  33.250;   0.273; 32;
82.6411; 168.7025;2; 312.071; 249.710;1968.07.03 00:00:00;   0.8;1018.4;   5.0; 180.0; 203.859;  33.500;   0.273; 32;
82.6535; 168.7637;2; 311.955; 249.600;1968.07.03 06:00:00;   1.2;1015.4;   7.0; 180.0; 205.497;  33.750;   0.273; 32;
82.6660; 168.8250;2; 311.839; 249.491;1968.07.03 12:00:00;   1.1;1011.3;   7.0; 160.0; 207.135;  34.000;   0.273; 32;
82.6716; 168.8613;2; 311.789; 249.430;1968.07.03 18:00:00;   0.5;1006.4;   9.0; 180.0; 207.946;  34.250;   0.135; 39;
82.6773; 168.8977;2; 311.739; 249.368;1968.07.04 00:00:00;   0.3;1005.0;   6.0; 190.0; 208.757;  34.500;   0.135; 39;
82.6829; 168.9341;2; 311.689; 249.307;1968.07.04 06:00:00;   0.8;1005.1;   6.0; 200.0; 209.568;  34.750;   0.135; 39;
82.6885; 168.9706;2; 311.638; 249.246;1968.07.04 12:00:00;   0.3;1006.8;   6.0; 220.0; 210.379;  35.000;   0.135; 40;
82.6942; 169.0071;2; 311.588; 249.185;1968.07.04 18:00:00;   0.7;1007.1;   6.0; 180.0; 211.191;  35.250;   0.135; 40;
82.6998; 169.0437;2; 311.538; 249.124;1968.07.05 00:00:00;   0.1;1006.6;   7.0; 180.0; 212.002;  35.500;   0.135; 40;
82.7054; 169.0803;2; 311.488; 249.063;1968.07.05 06:00:00;   1.0;1005.9;   8.0; 190.0; 212.813;  35.750;   0.135; 40;
82.7110; 169.1170;2; 311.438; 249.002;1968.07.05 12:00:00;   1.0;1007.4;   9.0; 190.0; 213.624;  36.000;   0.135; 40;
82.7437; 169.2326;2; 311.119; 248.780;1968.07.05 18:00:00;   0.9;1009.7;   7.0; 180.0; 217.611;  36.250;   0.664; 24;
82.7764; 169.3493;2; 310.801; 248.558;1968.07.06 00:00:00;   1.2;1012.5;   5.0; 180.0; 221.597;  36.500;   0.664; 24;
82.8091; 169.4670;2; 310.483; 248.336;1968.07.06 06:00:00;   0.9;1014.0;   4.0; 140.0; 225.585;  36.750;   0.665; 24;
82.8418; 169.5858;2; 310.164; 248.114;1968.07.06 12:00:00;   0.6;1015.0;   7.0; 130.0; 229.572;  37.000;   0.664; 24;
82.8744; 169.7057;2; 309.846; 247.891;1968.07.06 18:00:00;  -0.2;1015.1;   7.0; 140.0; 233.559;  37.250;   0.664; 25;
82.9069; 169.8267;2; 309.528; 247.669;1968.07.07 00:00:00;   0.6;1014.6;   5.0; 100.0; 237.546;  37.500;   0.664; 25;
82.9395; 169.9488;2; 309.209; 247.447;1968.07.07 06:00:00;  -0.2;1011.8;   8.0; 100.0; 241.533;  37.750;   0.665; 25;
82.9720; 170.0720;2; 308.891; 247.225;1968.07.07 12:00:00;   0.5;1008.5;   9.0;  90.0; 245.520;  38.000;   0.664; 25;
82.9984; 170.0430;2; 308.603; 247.213;1968.07.07 18:00:00;   0.3;1007.6;   9.0; 120.0; 248.479;  38.250;   0.493;352;
83.0248; 170.0139;2; 308.316; 247.202;1968.07.08 00:00:00;   0.3;1008.1;   9.0; 120.0; 251.439;  38.500;   0.493;352;
83.0511; 169.9844;2; 308.028; 247.190;1968.07.08 06:00:00;   0.3;1006.5;   7.0; 110.0; 254.399;  38.750;   0.493;352;
83.0775; 169.9548;2; 307.740; 247.178;1968.07.08 12:00:00;   0.0;1006.6;   7.0; 150.0; 257.358;  39.000;   0.493;352;
83.1039; 169.9250;2; 307.452; 247.167;1968.07.08 18:00:00;  -0.7;1008.5;   6.0; 160.0; 260.318;  39.250;   0.493;352;
83.1303; 169.8949;2; 307.164; 247.155;1968.07.09 00:00:00;  -0.5;1010.3;   3.0; 160.0; 263.277;  39.500;   0.493;352;
83.1566; 169.8645;2; 306.876; 247.144;1968.07.09 06:00:00;  -0.2;1011.5;   3.0; 160.0; 266.238;  39.750;   0.493;352;
83.1830; 169.8340;2; 306.588; 247.132;1968.07.09 12:00:00;  -0.4;1011.8;   3.0; 160.0; 269.197;  40.000;   0.493;352;
83.2054; 169.7472;2; 306.330; 247.199;1968.07.09 18:00:00;   0.2;1010.5;   3.0; 130.0; 271.941;  40.250;   0.457;335;
83.2279; 169.6598;2; 306.071; 247.265;1968.07.10 00:00:00;   0.3;1009.5;   2.0; 140.0; 274.686;  40.500;   0.457;335;
83.2503; 169.5718;2; 305.812; 247.332;1968.07.10 06:00:00;   0.2;1008.7;   2.0; 180.0; 277.430;  40.750;   0.457;335;
83.2726; 169.4832;2; 305.554; 247.398;1968.07.10 12:00:00;   0.1;1010.6;   1.0; 240.0; 280.174;  41.000;   0.457;335;
83.2950; 169.3941;2; 305.295; 247.465;1968.07.10 18:00:00;  -1.1;1012.6;   2.0; 190.0; 282.918;  41.250;   0.457;335;
83.3174; 169.3043;2; 305.036; 247.531;1968.07.11 00:00:00;  -0.8;1013.6;   3.0; 170.0; 285.663;  41.500;   0.457;335;
83.3397; 169.2140;2; 304.778; 247.598;1968.07.11 06:00:00;   0.7;1011.7;   7.0; 160.0; 288.406;  41.750;   0.457;335;
83.3620; 169.1230;2; 304.519; 247.665;1968.07.11 12:00:00;   1.7;1009.7;   9.0; 180.0; 291.150;  42.000;   0.457;335;
83.3849; 169.1661;2; 304.286; 247.565;1968.07.11 18:00:00;   1.1;1006.3;  11.0; 180.0; 293.755;  42.250;   0.434; 12;
83.4078; 169.2094;2; 304.053; 247.466;1968.07.12 00:00:00;   0.9;1003.7;   9.0; 180.0; 296.358;  42.500;   0.434; 12;
83.4306; 169.2531;2; 303.820; 247.366;1968.07.12 06:00:00;   0.4; 998.9;   7.0; 160.0; 298.963;  42.750;   0.434; 12;
83.4535; 169.2970;2; 303.587; 247.267;1968.07.12 12:00:00;   0.4; 997.0;   9.0; 210.0; 301.567;  43.000;   0.434; 12;
83.4764; 169.3413;2; 303.354; 247.167;1968.07.12 18:00:00;   0.2;1000.5;   7.0; 230.0; 304.172;  43.250;   0.434; 12;
83.4993; 169.3859;2; 303.121; 247.068;1968.07.13 00:00:00;   0.5;1003.3;   5.0; 220.0; 306.776;  43.500;   0.434; 12;
83.5221; 169.4308;2; 302.888; 246.969;1968.07.13 06:00:00;   0.4;1003.8;   3.0; 230.0; 309.381;  43.750;   0.434; 13;
83.5450; 169.4760;2; 302.655; 246.869;1968.07.13 12:00:00;   0.1;1004.8;   4.0; 220.0; 311.985;  44.000;   0.434; 13;
83.5652; 169.5479;2; 302.456; 246.744;1968.07.13 18:00:00;  -0.1;1003.9;   6.0; 180.0; 314.400;  44.250;   0.403; 22;
83.5853; 169.6202;2; 302.257; 246.618;1968.07.14 00:00:00;   0.3;1000.0;   6.0; 170.0; 316.814;  44.500;   0.402; 22;
83.6055; 169.6930;2; 302.059; 246.492;1968.07.14 06:00:00;   0.1; 998.9;   5.0; 220.0; 319.229;  44.750;   0.402; 22;
83.6256; 169.7663;2; 301.860; 246.367;1968.07.14 12:00:00;  -0.1; 999.7;   8.0; 200.0; 321.644;  45.000;   0.402; 22;
83.6457; 169.8400;2; 301.662; 246.241;1968.07.14 18:00:00;  -0.1; 999.4;  10.0; 180.0; 324.058;  45.250;   0.402; 22;
83.6658; 169.9142;2; 301.463; 246.116;1968.07.15 00:00:00;   0.0; 997.8;  11.0; 180.0; 326.473;  45.500;   0.402; 22;
83.6859; 169.9889;2; 301.265; 245.990;1968.07.15 06:00:00;   0.0; 997.9;   9.0; 180.0; 328.888;  45.750;   0.403; 22;
83.7060; 170.0640;2; 301.066; 245.865;1968.07.15 12:00:00;   0.0; 998.0;   7.0; 180.0; 331.303;  46.000;   0.402; 22;
83.7209; 170.0887;2; 300.913; 245.808;1968.07.15 18:00:00;  -0.7; 999.6;   8.0; 200.0; 332.985;  46.250;   0.280; 10;
83.7358; 170.1135;2; 300.759; 245.752;1968.07.16 00:00:00;  -0.4;1002.0;   6.0; 180.0; 334.667;  46.500;   0.280; 10;
83.7506; 170.1385;2; 300.606; 245.695;1968.07.16 06:00:00;  -1.1;1004.1;   4.0; 180.0; 336.348;  46.750;   0.280; 10;
83.7655; 170.1635;2; 300.452; 245.639;1968.07.16 12:00:00;  -0.7;1006.6;   5.0; 170.0; 338.030;  47.000;   0.280; 10;
83.7804; 170.1887;2; 300.299; 245.582;1968.07.16 18:00:00;  -1.8;1009.3;   3.0; 150.0; 339.711;  47.250;   0.280; 10;
83.7953; 170.2140;2; 300.145; 245.525;1968.07.17 00:00:00;  -2.5;1011.5;   2.0;  90.0; 341.393;  47.500;   0.280; 10;
83.8101; 170.2395;2; 299.992; 245.469;1968.07.17 06:00:00;  -1.9;1012.3;   5.0;  40.0; 343.074;  47.750;   0.280; 10;
83.8250; 170.2650;2; 299.838; 245.412;1968.07.17 12:00:00;  -1.1;1011.9;   6.0;  40.0; 344.756;  48.000;   0.280; 10;
83.8320; 170.2210;2; 299.755; 245.450;1968.07.17 18:00:00;  -0.2;1011.6;   6.0;  50.0; 345.696;  48.250;   0.157;326;
83.8390; 170.1769;2; 299.671; 245.487;1968.07.18 00:00:00;   0.1;1012.0;   3.0;  40.0; 346.637;  48.500;   0.157;326;
83.8460; 170.1326;2; 299.588; 245.525;1968.07.18 06:00:00;   0.3;1013.5;   2.0;  20.0; 347.578;  48.750;   0.157;326;
83.8530; 170.0883;2; 299.505; 245.563;1968.07.18 12:00:00;   0.2;1015.6;   1.0; 320.0; 348.519;  49.000;   0.157;326;
83.8600; 170.0439;2; 299.421; 245.600;1968.07.18 18:00:00;   0.3;1017.2;   1.0; 300.0; 349.460;  49.250;   0.157;326;
83.8670; 169.9994;2; 299.338; 245.638;1968.07.19 00:00:00;   0.5;1018.8;   2.0; 310.0; 350.400;  49.500;   0.157;326;
83.8740; 169.9547;2; 299.254; 245.675;1968.07.19 06:00:00;   0.4;1020.2;   2.0; 320.0; 351.341;  49.750;   0.157;326;
83.8810; 169.9100;2; 299.171; 245.713;1968.07.19 12:00:00;   0.3;1021.5;   3.0; 320.0; 352.282;  50.000;   0.157;326;